sat.trackr.live / text

‹ back to catalog

STARLINK-32874

NORAD 62954 · 2025-029G

PAYLOAD ACTIVE UNKNOWN

§ Identity

Operator
Country
US
Launch date
2025-02-11
Launch site
AFWTR
Launch vehicle
Mass (kg)
RCS (m²)

Purposes: comms

External: N2YO · Heavens-Above · Gunter

§ Orbital elements

Epoch: 2026-09-21T16:31:54.880032Z

Period
93.85 min
Inclination
53.1609°
Eccentricity
0.0000924
Mean motion
15.34411044 rev/d
Perigee alt
462.0 km
Apogee alt
463.3 km
Semi-major
6,840.8 km
B*
6.6796e-4
RAAN
35.8406°
Arg perigee
74.5451°
Mean anomaly
285.5654°
Rev number
9,142

§ Raw data

STARLINK-328741 62954U 25029G   26264.68882963  .00022267  00000+0  66796-3 0  99992 62954  53.1609  35.8406 0000924  74.5451 285.5654 15.34411044 91427

JSON: /api/v1/satellites/62954 · /tle

For live sub-satellite position, see the globe view (requires WebGL).

§ Visibility from observer

Set your observer location to see the next 7 days of passes ≥ 10°. The values pass through the URL so the page stays shareable.

No JS? Fill the form by hand. The geolocation button needs JavaScript.